Weather History for Brownsville, TX

Change the Weather History Date:

Thursday, May 3, 2012

  Actual Average Record
Temperature  
Mean Temperature 82 °F 78 °F  
Max Temperature 91 °F 86 °F 98 °F (1984)
Min Temperature 73 °F 70 °F 50 °F (1893)
Degree Days  
Heating Degree Days 0 0  
Month to date heating degree days 0 0  
Since 1 July heating degree days 352 554  
Cooling Degree Days 17 13  
Month to date cooling degree days 51 39  
Year to date cooling degree days 988 656  
Growing Degree Days 32 (Base 50)    
Moisture  
Dew Point 72 °F    
Average Humidity 73    
Maximum Humidity 94    
Minimum Humidity 52    
Precipitation  
Precipitation 0.00 in 0.06 in 3.48 in (1886)
Month to date precipitation 0.00 0.18  
Year to date precipitation 5.35 5.30  
Sea Level Pressure  
Sea Level Pressure 29.89 in    
Wind  
Wind Speed 10 mph (SE)    
Max Wind Speed 17 mph    
Max Gust Speed 23 mph    
Visibility 10 miles    
Events      
T = Trace of Precipitation, MM = Missing Value Source: NWS Daily Summary

Daily Weather History Graph

Daily Weather History Graph

Search for Another Location

Airport:

Trip Planner

Search our weather history database for the weather conditions in past years. The results will help you decide how hot, cold, wet, or windy it might be!

Date:

Astronomy

May. 03, 2012 Rise Set
Actual Time 6:50 AM CDT 8:02 PM CDT
Civil Twilight 6:26 AM CDT 8:26 PM CDT
Nautical Twilight 5:57 AM CDT 8:55 PM CDT
Astronomical Twilight 5:27 AM CDT 9:25 PM CDT
Moon 5:39 PM CDT (5/3) 4:40 AM CDT (5/3)
Length of Visible Light 14h 00m
Length of Day
13h 11m
Waxing Gibbous, 91% of the Moon is Illuminated
May 3
Waxing Gibbous
May 5
Full
May 12
Last Quarter
May 20
New
May 28
First Quarter

Hourly Weather History & Observations

Time (CDT) Temp. Heat Index Dew Point Humidity Pressure Visibility Wind Dir Wind Speed Gust Speed Precip Events Conditions
12:53 AM 77.0 °F - 72.0 °F 84% 29.90 in 10.0 mi SE 6.9 mph - N/A   Clear
1:53 AM 75.9 °F - 72.0 °F 87% 29.90 in 10.0 mi SE 5.8 mph - N/A   Clear
2:53 AM 75.9 °F - 72.0 °F 87% 29.86 in 10.0 mi SE 6.9 mph - N/A   Clear
3:53 AM 75.0 °F - 72.0 °F 90% 29.85 in 10.0 mi ESE 5.8 mph - N/A   Clear
4:53 AM 75.0 °F - 72.0 °F 90% 29.85 in 10.0 mi ESE 6.9 mph - N/A   Clear
5:53 AM 75.0 °F - 72.0 °F 90% 29.85 in 10.0 mi SE 5.8 mph - N/A   Clear
6:53 AM 73.9 °F - 71.1 °F 91% 29.88 in 10.0 mi Calm Calm - N/A   Scattered Clouds
7:04 AM 73.4 °F - 71.6 °F 94% 29.88 in 10.0 mi Calm Calm - N/A   Mostly Cloudy
7:53 AM 75.9 °F - 73.0 °F 91% 29.90 in 10.0 mi ESE 4.6 mph - N/A   Mostly Cloudy
8:00 AM 77.0 °F - 73.4 °F 89% 29.91 in 10.0 mi SE 5.8 mph - N/A   Scattered Clouds
8:53 AM 81.0 °F 85.8 °F 73.0 °F 77% 29.91 in 10.0 mi SE 10.4 mph - N/A   Clear
9:18 AM 82.4 °F 87.2 °F 71.6 °F 70% 29.93 in 10.0 mi SSE 12.7 mph - N/A   Mostly Cloudy
9:53 AM 84.0 °F 89.0 °F 71.1 °F 65% 29.93 in 10.0 mi SE 12.7 mph - N/A   Mostly Cloudy
10:53 AM 84.9 °F 89.4 °F 70.0 °F 61% 29.93 in 10.0 mi SSE 12.7 mph - N/A   Scattered Clouds
11:53 AM 88.0 °F 93.8 °F 71.1 °F 57% 29.93 in 10.0 mi SSE 12.7 mph - N/A   Scattered Clouds
12:53 PM 87.1 °F 92.0 °F 70.0 °F 57% 29.91 in 10.0 mi SE 15.0 mph 20.7 mph N/A   Partly Cloudy
1:53 PM 90.0 °F 95.4 °F 70.0 °F 52% 29.90 in 10.0 mi SE 13.8 mph - N/A   Mostly Cloudy
2:53 PM 90.0 °F 95.4 °F 70.0 °F 52% 29.89 in 10.0 mi SE 12.7 mph 21.9 mph N/A   Scattered Clouds
3:53 PM 89.1 °F 95.0 °F 71.1 °F 55% 29.87 in 10.0 mi ESE 11.5 mph 19.6 mph N/A   Partly Cloudy
4:53 PM 87.1 °F 92.8 °F 71.1 °F 59% 29.85 in 10.0 mi ESE 15.0 mph 21.9 mph N/A   Clear
5:53 PM 84.9 °F 90.1 °F 71.1 °F 63% 29.84 in 10.0 mi ESE 15.0 mph 19.6 mph N/A   Partly Cloudy
6:53 PM 82.9 °F 87.5 °F 71.1 °F 67% 29.86 in 10.0 mi SE 12.7 mph - N/A   Clear
7:53 PM 80.1 °F 83.8 °F 72.0 °F 76% 29.88 in 10.0 mi SE 10.4 mph - N/A   Partly Cloudy
8:53 PM 80.1 °F 84.2 °F 73.0 °F 79% 29.91 in 10.0 mi SE 9.2 mph - N/A   Partly Cloudy
9:53 PM 79.0 °F - 73.0 °F 82% 29.95 in 10.0 mi ESE 5.8 mph - N/A   Clear
10:53 PM 78.1 °F - 73.0 °F 84% 29.95 in 10.0 mi ESE 6.9 mph - N/A   Clear
11:53 PM 78.1 °F - 73.9 °F 87% 29.94 in 10.0 mi ESE 10.4 mph - N/A   Clear